• In Hungary
  • List of Countries
  • For 7 days
  • Water Temperature
  • Satellite Maps
  • Weather Map
  • News
  • Weather Widgets
  • user-avatar
    Login

    Hourly Weather Holoy

    Today, 24 February, Saturday

    Time Temperature Precipitation Wind Pressure Humidity
    00:00 -23°C° 0 mm 2 mps 600 mmHg 86%
    01:00 -23°C° 0 mm 2 mps 600 mmHg 85%
    02:00 -23°C° 0 mm 2 mps 600 mmHg 84%
    03:00 -23°C° 0 mm 2 mps 600 mmHg 83%
    04:00 -23°C° 0 mm 2 mps 600 mmHg 82%
    05:00 -23°C° 0 mm 2 mps 600 mmHg 81%
    06:00 -23°C° 0 mm 2 mps 600 mmHg 79%
    07:00 -24°C° 0 mm 2 mps 600 mmHg 78%
    08:00 -20°C° 0 mm 2 mps 601 mmHg 76%
    09:00 -16°C° 0 mm 1 mps 602 mmHg 75%
    10:00 -13°C° 0 mm 1 mps 603 mmHg 73%
    11:00 -12°C° 0 mm 1 mps 603 mmHg 71%
    12:00 -11°C° 0 mm 1 mps 603 mmHg 69%
    13:00 -10°C° 0 mm 1 mps 603 mmHg 66%
    14:00 -10°C° 0 mm 1 mps 603 mmHg 69%
    15:00 -10°C° 0 mm 1 mps 602 mmHg 73%
    16:00 -11°C° 0 mm 1 mps 602 mmHg 76%
    17:00 -13°C° 0 mm 1 mps 601 mmHg 79%
    18:00 -15°C° 0 mm 1 mps 600 mmHg 81%
    19:00 -19°C° 0 mm 2 mps 600 mmHg 84%
    20:00 -19°C° 0 mm 2 mps 599 mmHg 84%
    21:00 -19°C° 0 mm 2 mps 599 mmHg 84%
    22:00 -20°C° 0 mm 2 mps 599 mmHg 83%
    23:00 -20°C° 0 mm 2 mps 599 mmHg 82%

    Tomorrow, 25 February, Sunday

    Time Temperature Precipitation Wind Pressure Humidity
    00:00 -20°C° 0 mm 2 mps 599 mmHg 82%
    01:00 -20°C° 0 mm 2 mps 599 mmHg 81%
    02:00 -20°C° 0 mm 2 mps 598 mmHg 80%
    03:00 -20°C° 0 mm 2 mps 598 mmHg 80%
    04:00 -20°C° 0 mm 2 mps 598 mmHg 79%
    05:00 -18°C° 0 mm 1 mps 598 mmHg 79%
    06:00 -18°C° 0 mm 1 mps 598 mmHg 78%
    07:00 -17°C° 0 mm 1 mps 598 mmHg 78%
    08:00 -16°C° 0 mm 1 mps 599 mmHg 78%
    09:00 -14°C° 0 mm 1 mps 600 mmHg 77%
    10:00 -12°C° 0 mm 0 mps 601 mmHg 77%
    11:00 -11°C° 0 mm 1 mps 601 mmHg 80%
    12:00 -11°C° 0 mm 1 mps 600 mmHg 82%
    13:00 -11°C° 0 mm 1 mps 600 mmHg 85%
    14:00 -13°C° 0.3 mm 2 mps 600 mmHg 88%
    15:00 -14°C° 0.3 mm 2 mps 600 mmHg 91%
    16:00 -14°C° 0.3 mm 2 mps 600 mmHg 93%
    17:00 -15°C° 0.3 mm 2 mps 601 mmHg 94%
    18:00 -17°C° 0.3 mm 2 mps 601 mmHg 95%
    19:00 -18°C° 0.3 mm 2 mps 601 mmHg 96%
    20:00 -18°C° 0.2 mm 2 mps 602 mmHg 96%
    21:00 -19°C° 0.2 mm 2 mps 602 mmHg 96%
    22:00 -20°C° 0.2 mm 2 mps 602 mmHg 96%
    23:00 -20°C° 0.1 mm 2 mps 602 mmHg 96%

    Day after tomorrow, 26 February, Monday

    Time Temperature Precipitation Wind Pressure Humidity
    00:00 -21°C° 0.1 mm 2 mps 603 mmHg 96%
    01:00 -20°C° 0.1 mm 1 mps 603 mmHg 97%
    02:00 -21°C° 0.1 mm 1 mps 603 mmHg 97%
    03:00 -21°C° 0.1 mm 1 mps 603 mmHg 97%
    04:00 -22°C° 0.1 mm 1 mps 603 mmHg 97%
    05:00 -23°C° 0 mm 1 mps 602 mmHg 96%
    06:00 -23°C° 0 mm 1 mps 602 mmHg 96%
    07:00 -24°C° 0 mm 1 mps 602 mmHg 96%
    08:00 -22°C° 0 mm 1 mps 603 mmHg 93%
    09:00 -20°C° 0 mm 0 mps 604 mmHg 90%
    10:00 -18°C° 0 mm 0 mps 604 mmHg 88%
    11:00 -17°C° 0 mm 1 mps 604 mmHg 86%
    12:00 -16°C° 0 mm 1 mps 604 mmHg 85%
    13:00 -16°C° 0 mm 1 mps 604 mmHg 84%
    14:00 -18°C° 0.1 mm 2 mps 603 mmHg 85%
    15:00 -18°C° 0.1 mm 2 mps 603 mmHg 87%
    16:00 -18°C° 0.1 mm 2 mps 602 mmHg 88%
    17:00 -17°C° 0.1 mm 1 mps 601 mmHg 91%
    18:00 -19°C° 0.1 mm 1 mps 601 mmHg 93%
    19:00 -20°C° 0.1 mm 1 mps 600 mmHg 96%
    20:00 -20°C° 0.1 mm 1 mps 600 mmHg 96%
    21:00 -21°C° 0.1 mm 1 mps 600 mmHg 97%
    22:00 -21°C° 0.1 mm 1 mps 599 mmHg 97%
    23:00 -21°C° 0.1 mm 1 mps 599 mmHg 97%

    27 February, Tuesday

    Time Temperature Precipitation Wind Pressure Humidity
    00:00 -22°C° 0.1 mm 1 mps 599 mmHg 97%
    01:00 -22°C° 0.1 mm 1 mps 598 mmHg 97%
    02:00 -23°C° 0 mm 1 mps 598 mmHg 96%
    03:00 -23°C° 0 mm 1 mps 598 mmHg 96%
    04:00 -24°C° 0 mm 1 mps 597 mmHg 96%
    05:00 -24°C° 0 mm 1 mps 597 mmHg 95%
    06:00 -24°C° 0 mm 1 mps 597 mmHg 95%
    07:00 -25°C° 0 mm 1 mps 597 mmHg 95%
    08:00 -23°C° 0.1 mm 1 mps 597 mmHg 94%
    09:00 -22°C° 0.1 mm 1 mps 598 mmHg 92%
    10:00 -20°C° 0.1 mm 1 mps 599 mmHg 91%
    11:00 -19°C° 0.1 mm 1 mps 598 mmHg 90%
    12:00 -21°C° 0.1 mm 2 mps 598 mmHg 89%
    13:00 -20°C° 0.1 mm 2 mps 598 mmHg 88%
    14:00 -21°C° 0.1 mm 2 mps 598 mmHg 89%
    15:00 -21°C° 0.1 mm 2 mps 597 mmHg 90%
    16:00 -21°C° 0.1 mm 2 mps 597 mmHg 91%
    17:00 -24°C° 0.1 mm 2 mps 597 mmHg 93%
    18:00 -25°C° 0.1 mm 2 mps 597 mmHg 95%
    19:00 -24°C° 0.1 mm 1 mps 596 mmHg 97%
    20:00 -24°C° 0.1 mm 1 mps 596 mmHg 97%
    21:00 -25°C° 0.1 mm 1 mps 596 mmHg 97%
    22:00 -25°C° 0.1 mm 1 mps 596 mmHg 97%
    23:00 -27°C° 0 mm 1 mps 596 mmHg 97%

    28 February, Wednesday

    Time Temperature Precipitation Wind Pressure Humidity
    00:00 -27°C° 0 mm 1 mps 596 mmHg 97%
    01:00 -28°C° 0 mm 1 mps 596 mmHg 97%
    02:00 -28°C° 0 mm 1 mps 596 mmHg 97%
    03:00 -28°C° 0 mm 1 mps 596 mmHg 97%
    04:00 -29°C° 0 mm 1 mps 596 mmHg 97%
    05:00 -29°C° 0 mm 1 mps 596 mmHg 96%
    06:00 -29°C° 0 mm 1 mps 596 mmHg 95%
    07:00 -29°C° 0 mm 1 mps 596 mmHg 95%
    08:00 -27°C° 0 mm 1 mps 597 mmHg 92%
    09:00 -24°C° 0 mm 1 mps 597 mmHg 90%
    10:00 -22°C° 0 mm 1 mps 598 mmHg 87%
    11:00 -22°C° 0 mm 1 mps 598 mmHg 86%
    12:00 -21°C° 0 mm 1 mps 598 mmHg 85%
    13:00 -20°C° 0 mm 1 mps 598 mmHg 83%
    14:00 -24°C° 0.1 mm 2 mps 597 mmHg 85%
    15:00 -24°C° 0.1 mm 2 mps 597 mmHg 87%
    16:00 -24°C° 0.1 mm 2 mps 597 mmHg 88%
    17:00 -22°C° 0 mm 1 mps 596 mmHg 91%
    18:00 -24°C° 0 mm 1 mps 596 mmHg 94%
    19:00 -25°C° 0 mm 1 mps 595 mmHg 97%
    20:00 -27°C° 0.1 mm 1 mps 595 mmHg 97%
    21:00 -27°C° 0.1 mm 1 mps 595 mmHg 97%
    22:00 -27°C° 0.1 mm 1 mps 595 mmHg 98%
    23:00 -28°C° 0.1 mm 1 mps 595 mmHg 98%

    1 March, Thursday

    Time Temperature Precipitation Wind Pressure Humidity
    00:00 -28°C° 0.1 mm 1 mps 595 mmHg 98%
    01:00 -28°C° 0.1 mm 1 mps 595 mmHg 97%
    02:00 -29°C° 0 mm 1 mps 595 mmHg 97%
    03:00 -29°C° 0 mm 1 mps 595 mmHg 97%
    04:00 -29°C° 0 mm 1 mps 595 mmHg 97%
    05:00 -30°C° 0 mm 1 mps 595 mmHg 97%
    06:00 -30°C° 0 mm 1 mps 595 mmHg 97%
    07:00 -30°C° 0 mm 1 mps 595 mmHg 97%
    08:00 -29°C° 0 mm 1 mps 596 mmHg 95%
    09:00 -28°C° 0 mm 1 mps 597 mmHg 94%
    10:00 -28°C° 0 mm 2 mps 598 mmHg 93%
    11:00 -28°C° 0.1 mm 2 mps 598 mmHg 92%
    12:00 -27°C° 0.1 mm 2 mps 597 mmHg 91%
    13:00 -27°C° 0.1 mm 2 mps 597 mmHg 90%
    14:00 -27°C° 0.1 mm 2 mps 597 mmHg 90%
    15:00 -28°C° 0.1 mm 2 mps 597 mmHg 90%
    16:00 -28°C° 0.1 mm 2 mps 597 mmHg 91%
    17:00 -29°C° 0 mm 2 mps 597 mmHg 93%
    18:00 -29°C° 0 mm 1 mps 597 mmHg 95%
    19:00 -30°C° 0 mm 1 mps 597 mmHg 97%
    20:00 -31°C° 0 mm 1 mps 597 mmHg 97%
    21:00 -32°C° 0 mm 1 mps 597 mmHg 97%
    22:00 -32°C° 0 mm 1 mps 597 mmHg 97%
    23:00 -33°C° 0 mm 1 mps 596 mmHg 95%
    Show more